{"data":{"norad_id":52832,"epoch":"2026-09-19T13:49:05.334816Z","epoch_age_seconds":146245,"freshness":"FRESH","line1":"1 52832U 22062C   26262.57575619 -.00000358  00000+0  21454-6 0  9993","line2":"2 52832  53.1589 233.1102 0001158  82.1294 277.9839 15.31694736235196","mean_motion":15.31694736,"eccentricity":0.0001158,"inclination_deg":53.1589,"raan_deg":233.1102,"arg_perigee_deg":82.1294,"mean_anomaly_deg":277.9839,"bstar":2.1454e-7,"rev_number":23519,"period_min":94.013511057728,"perigee_km":469.96258520752,"apogee_km":471.54878875382,"semimajor_km":6848.8926869807,"source":"CELESTRAK","updated_at":"2026-09-20T09:00:40.110871Z"}}